Waarnemingen

Advertentie
Mijn weer
Gela, Italië (16453): temperatuur & dauwpunt: 15.05.2018 19:00:00 - 21.05.2018 19:00:00 (CEST)Gela, Italië (16453): windsnelheid: 15.05.2018 19:00:00 - 21.05.2018 19:00:00 (CEST)Gela, Italië (16453): windrichting: 15.05.2018 19:00:00 - 21.05.2018 19:00:00 (CEST)Gela, Italië (16453): luchtdruk: 15.05.2018 19:00:00 - 21.05.2018 19:00:00 (CEST)Gela, Italië (16453): zicht: 15.05.2018 19:00:00 - 21.05.2018 19:00:00 (CEST)Gela, Italië (16453): Zonneschijnduur: 15.05.2018 19:00:00 - 21.05.2018 19:00:00 (CEST)
Datum & Tijd tt [°C] td [°C] ff [km/u] ff [kn] dd ppp [hPa] vv [km] sd [min]
21.05.2018 19:00:00 - - - - - - - -
21.05.2018 18:00:00 25,0 17,0 8 4 ZW - 10 -
21.05.2018 17:00:00 24,8 16,5 8 4 WZW 1008,8 20 60
21.05.2018 16:00:00 24,0 16,0 5 3 ZZW - 10 -
21.05.2018 15:00:00 24,0 16,0 8 4 W - 10 -
21.05.2018 14:00:00 23,0 15,3 8 4 ZZW 1010,9 18 60
21.05.2018 13:00:00 23,0 13,0 13 7 WZW - 10 -
21.05.2018 12:00:00 23,0 13,0 13 7 ZW - 10 -
21.05.2018 11:00:00 23,4 12,4 11 6 ZZW 1011,5 20 60
21.05.2018 10:00:00 25,0 13,0 11 6 ONO - 10 -
21.05.2018 09:00:00 24,0 14,0 13 7 ONO - 10 -
21.05.2018 08:00:00 21,8 14,2 9 5 ONO 1010,8 18 42
21.05.2018 07:00:00 - - - - - - - -
21.05.2018 06:00:00 - - - - - - - -
21.05.2018 05:00:00 - - - - - - - -
21.05.2018 04:00:00 - - - - - - - -
21.05.2018 03:00:00 - - - - - - - -
21.05.2018 02:00:00 - - - - - - - -
21.05.2018 01:00:00 - - - - - - - -
21.05.2018 00:00:00 - - - - - - - -
20.05.2018 23:00:00 - - - - - - - -
20.05.2018 22:00:00 - - - - - - - -
20.05.2018 21:00:00 - - - - - - - -
20.05.2018 20:00:00 20,4 9,0 11 6 ZW 1010,1 18 24
20.05.2018 19:00:00 22,0 10,0 15 8 ZW - 10 -
20.05.2018 18:00:00 25,0 12,0 21 11 NO - 10 -
20.05.2018 17:00:00 25,8 12,3 24 13 ONO 1008,6 25 48
20.05.2018 16:00:00 27,0 13,0 28 15 NO - 10 -
20.05.2018 15:00:00 27,0 13,0 28 15 NO - 10 -
20.05.2018 14:00:00 26,4 12,1 24 13 ONO 1009,0 25 60
20.05.2018 13:00:00 26,0 12,0 24 13 NW - 10 -
20.05.2018 12:00:00 26,0 12,0 24 13 ONO - 10 -
20.05.2018 11:00:00 24,6 12,5 31 17 ONO 1009,5 25 60
20.05.2018 10:00:00 24,0 14,0 28 15 ONO - 10 -
20.05.2018 09:00:00 22,0 14,0 28 15 ONO - 10 -
20.05.2018 08:00:00 21,4 14,3 24 13 ONO 1010,3 25 60
20.05.2018 07:00:00 - - - - - - - -
20.05.2018 06:00:00 - - - - - - - -
20.05.2018 05:00:00 - - - - - - - -
20.05.2018 04:00:00 - - - - - - - -
20.05.2018 03:00:00 - - - - - - - -
20.05.2018 02:00:00 - - - - - - - -
20.05.2018 01:00:00 - - - - - - - -
20.05.2018 00:00:00 - - - - - - - -
19.05.2018 23:00:00 - - - - - - - -
19.05.2018 22:00:00 - - - - - - - -
19.05.2018 21:00:00 - - - - - - - -
19.05.2018 20:00:00 21,0 16,0 11 6 W 1011,0 15 0
19.05.2018 19:00:00 21,0 16,0 13 7 W - 10 -
19.05.2018 18:00:00 22,0 16,0 16 9 W - 10 -
19.05.2018 17:00:00 22,2 16,0 13 7 W 1010,9 15 36
19.05.2018 16:00:00 21,0 15,0 11 6 WZW - 10 -
19.05.2018 15:00:00 21,0 15,0 16 9 ZW - 10 -
19.05.2018 14:00:00 21,8 14,5 16 9 ZW 1011,2 15 36
19.05.2018 13:00:00 22,0 14,0 15 8 ZW - 10 -
19.05.2018 12:00:00 23,0 14,0 13 7 WZW - 10 -
19.05.2018 11:00:00 24,0 15,0 9 5 ONO 1011,0 15 12
19.05.2018 10:00:00 23,0 16,0 13 7 NO - 10 -
19.05.2018 09:00:00 20,0 15,0 15 8 NO - 10 -
19.05.2018 08:00:00 19,4 15,5 5 3 NO 1012,1 10 6
19.05.2018 07:00:00 - - - - - - - -
19.05.2018 06:00:00 - - - - - - - -
19.05.2018 05:00:00 - - - - - - - -
19.05.2018 04:00:00 - - - - - - - -
19.05.2018 03:00:00 - - - - - - - -
19.05.2018 02:00:00 - - - - - - - -
19.05.2018 01:00:00 - - - - - - - -
19.05.2018 00:00:00 - - - - - - - -
18.05.2018 23:00:00 - - - - - - - -
18.05.2018 22:00:00 - - - - - - - -
18.05.2018 21:00:00 - - - - - - - -
18.05.2018 20:00:00 22,0 17,8 8 4 ZW 1010,1 18 0
18.05.2018 19:00:00 22,0 13,0 11 6 W - 10 -
18.05.2018 18:00:00 23,0 14,0 13 7 WZW - 10 -
18.05.2018 17:00:00 23,2 13,1 13 7 WZW 1009,3 18 60
18.05.2018 16:00:00 24,0 13,0 11 6 ZW - 10 -
18.05.2018 15:00:00 27,0 15,0 11 6 O - 10 -
18.05.2018 14:00:00 26,0 15,1 16 9 ONO 1009,8 18 60
18.05.2018 13:00:00 25,0 14,0 21 11 ONO - 10 -
18.05.2018 12:00:00 24,0 15,0 24 13 ONO - 10 -
18.05.2018 11:00:00 23,0 15,3 24 13 NO 1010,1 10 60
18.05.2018 10:00:00 22,0 15,0 21 11 ONO - 10 -
18.05.2018 09:00:00 22,0 15,0 21 11 NO - 10 -
18.05.2018 08:00:00 21,0 14,9 21 11 NO 1010,1 15 0
18.05.2018 07:00:00 - - - - - - - -
18.05.2018 06:00:00 - - - - - - - -
18.05.2018 05:00:00 - - - - - - - -
18.05.2018 04:00:00 - - - - - - - -
18.05.2018 03:00:00 - - - - - - - -
18.05.2018 02:00:00 - - - - - - - -
18.05.2018 01:00:00 - - - - - - - -
18.05.2018 00:00:00 - - - - - - - -
17.05.2018 23:00:00 - - - - - - - -
17.05.2018 22:00:00 - - - - - - - -
17.05.2018 21:00:00 - - - - - - - -
17.05.2018 20:00:00 22,0 14,1 5 3 W 1012,0 15 0
17.05.2018 19:00:00 22,0 14,0 9 5 WNW - 10 -
17.05.2018 18:00:00 22,0 13,0 13 7 W - 10 -
17.05.2018 17:00:00 22,4 13,5 11 6 W 1012,1 10 54
17.05.2018 16:00:00 23,0 13,0 13 7 WNW - 10 -
17.05.2018 15:00:00 22,0 12,0 11 6 W - 10 -
17.05.2018 14:00:00 21,8 10,9 16 9 ZW 1012,1 20 60
17.05.2018 13:00:00 22,0 10,0 13 7 ZW - 10 -
17.05.2018 12:00:00 25,0 13,0 4 2 NO - 10 -
17.05.2018 11:00:00 23,0 10,1 9 5 NO 1013,4 15 60
17.05.2018 10:00:00 21,0 15,0 11 6 NNO - 10 -
17.05.2018 09:00:00 18,0 14,0 5 3 NO - 10 -
17.05.2018 08:00:00 17,2 14,1 5 3 NO 1014,2 10 0
17.05.2018 07:00:00 - - - - - - - -
17.05.2018 06:00:00 - - - - - - - -
17.05.2018 05:00:00 - - - - - - - -
17.05.2018 04:00:00 - - - - - - - -
17.05.2018 03:00:00 - - - - - - - -
17.05.2018 02:00:00 - - - - - - - -
17.05.2018 01:00:00 - - - - - - - -
17.05.2018 00:00:00 - - - - - - - -
16.05.2018 23:00:00 - - - - - - - -
16.05.2018 22:00:00 - - - - - - - -
16.05.2018 21:00:00 - - - - - - - -
16.05.2018 20:00:00 18,0 9,9 2 1 NO 1014,9 20 0
16.05.2018 19:00:00 18,0 10,0 4 2 ZW - 10 -
16.05.2018 18:00:00 18,0 12,0 8 4 ZW - 10 -
16.05.2018 17:00:00 18,4 12,4 8 4 WZW 1015,8 20 48
16.05.2018 16:00:00 18,0 14,0 9 5 WZW - 10 -
16.05.2018 15:00:00 18,0 14,0 11 6 N - 10 -
16.05.2018 14:00:00 18,4 13,5 15 8 WZW 1015,5 10 60
16.05.2018 13:00:00 19,0 13,0 8 4 ZW - 10 -
16.05.2018 12:00:00 19,0 15,0 9 5 ZW - 10 -
16.05.2018 11:00:00 18,2 14,1 8 4 ZW 1016,3 20 60
16.05.2018 10:00:00 18,0 14,0 8 4 ZZW - 10 -
16.05.2018 09:00:00 17,0 14,0 4 2 WZW - 10 -
16.05.2018 08:00:00 15,2 12,3 5 3 ONO 1016,0 18 48
16.05.2018 07:00:00 - - - - - - - -
16.05.2018 06:00:00 - - - - - - - -
16.05.2018 05:00:00 - - - - - - - -
16.05.2018 04:00:00 - - - - - - - -
16.05.2018 03:00:00 - - - - - - - -
16.05.2018 02:00:00 - - - - - - - -
16.05.2018 01:00:00 - - - - - - - -
16.05.2018 00:00:00 - - - - - - - -
15.05.2018 23:00:00 - - - - - - - -
15.05.2018 22:00:00 - - - - - - - -
15.05.2018 21:00:00 - - - - - - - -
15.05.2018 20:00:00 19,0 12,7 15 8 W 1014,0 20 0
15.05.2018 19:00:00 19,0 14,0 13 7 W - 10 -

tt = temperatuur
td = dauwpunt
ff = windsnelheid
dd = windrichting
ppp = luchtdruk
vv = zicht
sd = Zonneschijnduur

Weerstations in de omgeving